Burlington, NC

10:58 AM EDT on June 22, 2017 (GMT -0400)
Burlington-Alamance Regional

Weather History for KBUY - October, 2013

Change the Weather History Date:

Tuesday, October 8, 2013

  Actual Average Record
Temperature  
Mean Temperature 60 °F -  
Max Temperature 64 °F 72 °F 93 °F (2007)
Min Temperature 55 °F 49 °F 33 °F (2001)
Degree Days  
Heating Degree Days 6    
Growing Degree Days 10 (Base 50)    
Moisture  
Dew Point 46 °F    
Average Humidity 61    
Maximum Humidity 72    
Minimum Humidity 48    
Precipitation  
Precipitation 0.00 in - - ()
Sea Level Pressure  
Sea Level Pressure 30.15 in    
Wind  
Wind Speed 10 mph (NNE)    
Max Wind Speed 16 mph    
Max Gust Speed 23 mph    
Visibility 10 miles    
Events      
Averages and records for this station are not official NWS values.
T = Trace of Precipitation, MM = Missing Value Source: NWS Daily Summary

Daily Weather History Graph

Daily Weather History Graph

Search for Another Location

Airport or City:

Trip Planner

Search our weather history database for the weather conditions in past years. The results will help you decide how hot, cold, wet, or windy it might be!

Date:

Astronomy

Oct. 08, 2013 Rise Set
Actual Time 7:18 AM EDT 6:51 PM EDT
Civil Twilight 6:53 AM EDT 7:16 PM EDT
Nautical Twilight 6:23 AM EDT 7:46 PM EDT
Astronomical Twilight 5:53 AM EDT 8:16 PM EDT
Moon 11:04 AM EDT (10/8) 9:33 PM EDT (10/8)
Length of Visible Light 12h 23m
Length of Day
11h 32m
Waxing Crescent, 16% of the Moon is Illuminated
Oct 8
Waxing Crescent
Oct 11
First Quarter
Oct 18
Full
Oct 26
Last Quarter
Nov 3
New

Hourly Weather History & Observations

Time (EDT) Temp. Dew Point Humidity Pressure Visibility Wind Dir Wind Speed Gust Speed Precip Events Conditions
12:54 AM 61.0 °F 46.9 °F 60% 30.02 in 10.0 mi North 8.1 mph - N/A   Mostly Cloudy
1:54 AM 60.1 °F 46.9 °F 62% 30.03 in 10.0 mi North 10.4 mph - N/A   Overcast
2:22 AM 60.8 °F 46.4 °F 59% 30.05 in 10.0 mi North 8.1 mph - N/A   Overcast
2:54 AM 60.1 °F 46.0 °F 60% 30.05 in 10.0 mi North 6.9 mph - N/A   Overcast
3:37 AM 59.0 °F 44.6 °F 59% 30.07 in 10.0 mi NNE 9.2 mph - N/A   Overcast
3:54 AM 59.0 °F 46.0 °F 62% 30.06 in 10.0 mi NNE 8.1 mph - N/A   Overcast
4:54 AM 57.9 °F 48.0 °F 70% 30.07 in 10.0 mi North 9.2 mph - N/A   Overcast
5:54 AM 57.9 °F 48.9 °F 72% 30.09 in 10.0 mi NNE 9.2 mph - N/A   Overcast
6:54 AM 57.9 °F 48.0 °F 70% 30.12 in 10.0 mi NNE 6.9 mph - N/A   Overcast
7:54 AM 57.9 °F 45.0 °F 62% 30.14 in 10.0 mi NNE 12.7 mph 20.7 mph N/A   Overcast
8:54 AM 57.0 °F 44.1 °F 62% 30.17 in 10.0 mi NNE 12.7 mph 19.6 mph N/A   Overcast
9:54 AM 60.1 °F 45.0 °F 57% 30.19 in 10.0 mi NNE 16.1 mph 23.0 mph N/A   Overcast
10:54 AM 60.1 °F 44.1 °F 55% 30.19 in 10.0 mi NNE 11.5 mph 20.7 mph N/A   Clear
11:54 AM 61.0 °F 44.1 °F 54% 30.20 in 10.0 mi NE 11.5 mph 21.9 mph N/A   Clear
12:54 PM 63.0 °F 45.0 °F 52% 30.19 in 10.0 mi NNE 15.0 mph 23.0 mph N/A   Clear
1:54 PM 64.0 °F 45.0 °F 50% 30.17 in 10.0 mi NE 11.5 mph 19.6 mph N/A   Clear
2:54 PM 64.9 °F 45.0 °F 48% 30.16 in 10.0 mi NNE 15.0 mph 21.9 mph N/A   Mostly Cloudy
3:54 PM 63.0 °F 46.0 °F 54% 30.17 in 10.0 mi NNE 10.4 mph - N/A   Overcast
4:54 PM 63.0 °F 46.0 °F 54% 30.17 in 10.0 mi NNE 6.9 mph 20.7 mph N/A   Overcast
5:54 PM 61.0 °F 46.0 °F 58% 30.19 in 10.0 mi NE 9.2 mph 17.3 mph N/A   Clear
6:54 PM 59.0 °F 46.0 °F 62% 30.19 in 10.0 mi North 9.2 mph - N/A   Scattered Clouds
7:54 PM 57.9 °F 45.0 °F 62% 30.21 in 10.0 mi NNE 9.2 mph - N/A   Clear
8:54 PM 57.0 °F 46.0 °F 67% 30.22 in 10.0 mi NNE 8.1 mph - N/A   Mostly Cloudy
9:54 PM 57.0 °F 46.0 °F 67% 30.22 in 10.0 mi NNE 8.1 mph - N/A   Overcast
10:54 PM 55.9 °F 46.0 °F 69% 30.23 in 10.0 mi NNE 8.1 mph - N/A   Scattered Clouds
11:54 PM 55.9 °F 45.0 °F 67% 30.21 in 10.0 mi NNE 8.1 mph - N/A   Partly Cloudy